Hourly Data Report for October 06, 2017

All times are specified in Local Standard Time (LST). Add 1 hour to adjust for Daylight Saving Time where and when it is observed.

OAKPOINT MARINE
MANITOBA

50°29'58.044" N
98°02'12.030" W
249.60 m
504K0NM
71144
WOJ

Download Data

Hourly Data (October 2017)
Hourly Data Report for October 6, 2017
Temp Definition
°C
Dew Point Temp Definition
°C
Rel Hum Definition
%
Wind Dir Definition
10's deg

Wind Spd Definition
km/h
Visibility Definition
km
Stn Press Definition
kPa
Hmdx Definition


Wind Chill Definition


Weather Definition


TIME
00:00 10.5 6.3 75 22 21   98.62     LegendNANA
01:00 10.4 7.1 80 22 21   98.59     LegendNANA
02:00 10.3 6.6 78 23 25   98.54     LegendNANA
03:00 10.2 6.7 79 23 24   98.47     LegendNANA
04:00 10.0 6.1 77 23 28   98.41     LegendNANA
05:00 9.7 5.9 77 22 28   98.35     LegendNANA
06:00 9.1 6.0 81 23 30   98.29     LegendNANA
07:00 9.6 6.4 81 23 31   98.26     LegendNANA
08:00 9.6 6.0 78 23 28   98.22     LegendNANA
09:00 10.2 5.9 75 23 27   98.16     LegendNANA
10:00 10.5 5.8 72 21 20   98.08     LegendNANA
11:00 10.9 6.1 72 20 22   98.02     LegendNANA
12:00 12.5 6.6 68 20 24   97.92     LegendNANA
13:00 14.0 7.7 66 19 19   97.77     LegendNANA
14:00 14.2 8.6 69 19 16   97.62     LegendNANA
15:00 14.3 8.1 66 18 15   97.50     LegendNANA
16:00 14.1 8.3 68 18 12   97.37     LegendNANA
17:00 14.1 7.9 66 20 18   97.29     LegendNANA
18:00 13.3 8.5 73 20 14   97.22     LegendNANA
19:00 12.8 8.5 75 18 20   97.15     LegendNANA
20:00 13.1 7.9 71 18 23   97.03     LegendNANA
21:00 12.4 7.9 74 17 26   96.95     LegendNANA
22:00 12.6 7.4 71 18 30   96.85     LegendNANA
23:00 11.7 7.5 76 17 30   96.74     LegendNANA

Notes on Data Quality.

Legend

  • E = Estimated
  • M = Missing
  • NA = Not Available
  • ‡ = Partner data that is not subject to review by the National Climate Archives
Date modified: